Location: Acheville
(50.3840°N, 2.8827°E)
Time: 18:52:03
(UTC+00:00)

Cosmos 220 Rocket - Pass Details

Date: 24 October 2021
Orbit: 575 x 615 km, 74.0° (Epoch: 07 December)

Event Time Altitude Azimuth Distance (km) Brightness Sun altitude
Rises 18:31:53 0° 197° (SSW) 2,869 7.7 -18.7°
Reaches altitude 10° 18:34:08 10° 196° (SSW) 1,966 6.8 -19.0°
Maximum altitude 18:38:31 75° 112° (ESE) 636 3.9 -19.7°
Enters shadow 18:41:12 23° 30° (NNE) 1,303 5.5 -20.1°
